Weather History for Oakland, MD

Change the Weather History Date:

Friday, July 5, 2013

  Actual Average (KMGW) Record (KMGW)
Temperature  
Mean Temperature 70 °F 73 °F  
Max Temperature 78 °F 84 °F 96 °F (1949)
Min Temperature 62 °F 63 °F 45 °F (1979)
Degree Days  
Heating Degree Days 0 0  
Month to date heating degree days 0  
Since 1 June heating degree days 31  
Since 1 July heating degree days 0  
Cooling Degree Days 5 8  
Month to date cooling degree days 40  
Year to date cooling degree days 269  
Since 1 June cooling degree days 202  
Growing Degree Days 20 (Base 50)    
Moisture  
Dew Point 66 °F    
Average Humidity 91    
Maximum Humidity 100    
Minimum Humidity 65    
Precipitation  
Precipitation 0.00 in 0.15 in 1.93 in (1969)
Month to date precipitation 0.75  
Year to date precipitation 22.05  
Sea Level Pressure  
Sea Level Pressure 30.28 in    
Wind  
Wind Speed 7 mph (SSW)    
Max Wind Speed 12 mph    
Max Gust Speed 20 mph    
Visibility 10 miles    
Events Fog    
T = Trace of Precipitation, MM = Missing Value Source: NWS Daily Summary

Daily Weather History Graph

Daily Weather History Graph

Search for Another Location

Airport:

Trip Planner

Search our weather history database for the weather conditions in past years. The results will help you decide how hot, cold, wet, or windy it might be!

Date:

Astronomy

Jul. 05, 2013 Rise Set
Actual Time 5:55 AM EDT 8:47 PM EDT
Civil Twilight 5:23 AM EDT 9:20 PM EDT
Nautical Twilight 4:43 AM EDT 10:00 PM EDT
Astronomical Twilight 3:56 AM EDT 10:47 PM EDT
Moon 3:53 AM EDT (7/5) 6:41 PM EDT (7/5)
Length of Visible Light 15h 56m
Length of Day
14h 52m
Waning Crescent, 6% of the Moon is Illuminated
Jul 5
Waning Crescent
Jul 8
New
Jul 15
First Quarter
Jul 22
Full
Jul 29
Last Quarter

Hourly Weather History & Observations

Time (EDT) Temp. Dew Point Humidity Pressure Visibility Wind Dir Wind Speed Gust Speed Precip Events Conditions
12:15 AM 64.4 °F 64.4 °F 100% 30.30 in 10.0 mi South 6.9 mph - N/A   Clear
12:35 AM 64.4 °F 64.4 °F 100% 30.31 in 10.0 mi South 5.8 mph - N/A   Clear
12:55 AM 64.4 °F 64.4 °F 100% 30.30 in 10.0 mi South 9.2 mph - N/A   Clear
1:15 AM 64.4 °F 64.4 °F 100% 30.30 in 10.0 mi South 6.9 mph - N/A   Clear
1:35 AM 64.4 °F 64.4 °F 100% 30.30 in 10.0 mi South 5.8 mph - N/A   Clear
1:55 AM 64.4 °F 64.4 °F 100% 30.30 in 10.0 mi SSE 6.9 mph - N/A   Clear
2:15 AM 62.6 °F 62.6 °F 100% 30.29 in 10.0 mi SSE 6.9 mph - N/A   Clear
2:35 AM 62.6 °F 62.6 °F 100% 30.29 in 10.0 mi South 8.1 mph - N/A   Clear
2:55 AM 62.6 °F 62.6 °F 100% 30.29 in 10.0 mi SSE 8.1 mph - N/A   Clear
3:15 AM 64.4 °F 64.4 °F 100% 30.29 in 10.0 mi South 8.1 mph - N/A   Clear
3:35 AM 62.6 °F 62.6 °F 100% 30.29 in 10.0 mi South 5.8 mph - N/A   Clear
3:55 AM 62.6 °F 62.6 °F 100% 30.29 in 10.0 mi South 8.1 mph - N/A   Clear
4:15 AM 64.4 °F 64.4 °F 100% 30.29 in 10.0 mi South 8.1 mph - N/A   Clear
4:35 AM 64.4 °F 64.4 °F 100% 30.28 in 10.0 mi South 8.1 mph - N/A   Clear
4:55 AM 64.4 °F 64.4 °F 100% 30.28 in 10.0 mi South 6.9 mph - N/A   Scattered Clouds
5:15 AM 64.4 °F 64.4 °F 100% 30.27 in 10.0 mi South 6.9 mph - N/A   Scattered Clouds
5:35 AM 64.4 °F 64.4 °F 100% 30.28 in 10.0 mi South 5.8 mph - N/A   Scattered Clouds
6:15 AM 64.4 °F 64.4 °F 100% 30.28 in 10.0 mi South 4.6 mph - N/A   Mostly Cloudy
6:35 AM 64.4 °F 64.4 °F 100% 30.29 in 10.0 mi South 6.9 mph - N/A   Mostly Cloudy
6:55 AM 68.0 °F 68.0 °F 100% 30.29 in 10.0 mi South 8.1 mph - N/A   Scattered Clouds
7:15 AM 68.0 °F 68.0 °F 100% 30.29 in 10.0 mi South 8.1 mph - N/A   Clear
7:35 AM 68.0 °F 68.0 °F 100% 30.29 in 10.0 mi South 6.9 mph - N/A   Scattered Clouds
7:55 AM 68.0 °F 68.0 °F 100% 30.29 in 10.0 mi South 5.8 mph - N/A   Scattered Clouds
8:35 AM 69.8 °F 66.2 °F 88% 30.30 in 10.0 mi South 8.1 mph - N/A   Clear
8:55 AM 71.6 °F 68.0 °F 88% 30.30 in 10.0 mi South 6.9 mph - N/A   Clear
9:15 AM 71.6 °F 68.0 °F 88% 30.30 in 10.0 mi South 4.6 mph - N/A   Clear
9:35 AM 71.6 °F 68.0 °F 88% 30.30 in 10.0 mi SSW 6.9 mph - N/A   Clear
9:55 AM 73.4 °F 66.2 °F 78% 30.30 in 10.0 mi SW 10.4 mph 17.3 mph N/A   Scattered Clouds
10:15 AM 73.4 °F 64.4 °F 73% 30.31 in 10.0 mi SW 10.4 mph 16.1 mph N/A   Scattered Clouds
10:35 AM 73.4 °F 64.4 °F 73% 30.31 in 10.0 mi SSW 9.2 mph 17.3 mph N/A   Scattered Clouds
10:55 AM 73.4 °F 64.4 °F 73% 30.31 in 10.0 mi SSW 8.1 mph - N/A   Clear
11:15 AM 75.2 °F 64.4 °F 69% 30.31 in 10.0 mi SW 6.9 mph 17.3 mph N/A   Clear
11:35 AM 77.0 °F 64.4 °F 65% 30.32 in 10.0 mi WSW 8.1 mph 19.6 mph N/A   Scattered Clouds
11:55 AM 77.0 °F 64.4 °F 65% 30.31 in 10.0 mi SSW 11.5 mph 18.4 mph N/A   Clear
12:15 PM 75.2 °F 64.4 °F 69% 30.31 in 10.0 mi SW 8.1 mph 17.3 mph N/A   Scattered Clouds
12:35 PM 77.0 °F 64.4 °F 65% 30.31 in 10.0 mi SW 9.2 mph 16.1 mph N/A   Scattered Clouds
12:55 PM 77.0 °F 66.2 °F 69% 30.31 in 10.0 mi West 6.9 mph - N/A   Mostly Cloudy
1:15 PM 78.8 °F 66.2 °F 65% 30.30 in 10.0 mi Calm Calm - N/A   Mostly Cloudy
1:30 PM 75.2 °F 64.4 °F 69% 30.29 in 10.0 mi West 5.8 mph - N/A   Mostly Cloudy
1:55 PM 73.4 °F 64.4 °F 73% 30.29 in 10.0 mi WSW 5.8 mph - N/A   Overcast
2:15 PM 69.8 °F 69.8 °F 100% 30.30 in 5.0 mi SSW 5.8 mph - N/A   Overcast
2:35 PM 71.6 °F 69.8 °F 94% 30.29 in 10.0 mi SW 4.6 mph - N/A   Mostly Cloudy
2:55 PM 75.2 °F 69.8 °F 83% 30.29 in 10.0 mi SW 6.9 mph - N/A   Mostly Cloudy
3:15 PM 77.0 °F 68.0 °F 74% 30.28 in 10.0 mi SSW 6.9 mph - N/A   Clear
3:35 PM 77.0 °F 69.8 °F 78% 30.27 in 10.0 mi SW 6.9 mph 10.4 mph N/A   Scattered Clouds
3:55 PM 77.0 °F 66.2 °F 69% 30.26 in 10.0 mi South 8.1 mph - N/A   Scattered Clouds
4:15 PM 78.8 °F 66.2 °F 65% 30.26 in 10.0 mi SW 10.4 mph - N/A   Scattered Clouds
4:35 PM 77.0 °F 66.2 °F 69% 30.25 in 10.0 mi WSW 5.8 mph - N/A   Scattered Clouds
4:55 PM 73.4 °F 66.2 °F 78% 30.25 in 10.0 mi WSW 3.5 mph - N/A   Clear
5:15 PM 71.6 °F 68.0 °F 88% 30.27 in 1.5 mi SSE 10.4 mph - N/A   Overcast
5:35 PM 68.0 °F 68.0 °F 100% 30.26 in 0.5 mi WSW 3.5 mph - N/A Fog Fog
5:55 PM 69.8 °F 69.8 °F 100% 30.25 in 10.0 mi Calm Calm - N/A   Scattered Clouds
6:15 PM 69.8 °F 69.8 °F 100% 30.25 in 10.0 mi Calm Calm - N/A   Scattered Clouds
6:35 PM 69.8 °F 69.8 °F 100% 30.25 in 10.0 mi Calm Calm - N/A   Mostly Cloudy
6:55 PM 69.8 °F 69.8 °F 100% 30.25 in 10.0 mi West 4.6 mph - N/A   Overcast
7:15 PM 69.8 °F 69.8 °F 100% 30.25 in 10.0 mi West 3.5 mph - N/A   Mostly Cloudy
7:35 PM 69.8 °F 69.8 °F 100% 30.26 in 10.0 mi SW 4.6 mph - N/A   Mostly Cloudy
7:55 PM 69.8 °F 69.8 °F 100% 30.26 in 10.0 mi South 5.8 mph - N/A   Overcast
8:15 PM 69.8 °F 69.8 °F 100% 30.26 in 10.0 mi SSW 5.8 mph - N/A   Scattered Clouds
8:35 PM 68.0 °F 68.0 °F 100% 30.27 in 10.0 mi South 5.8 mph - N/A   Clear
8:55 PM 68.0 °F 68.0 °F 100% 30.27 in 10.0 mi South 4.6 mph - N/A   Clear
9:15 PM 68.0 °F 68.0 °F 100% 30.27 in 10.0 mi South 5.8 mph - N/A   Clear
9:35 PM 66.2 °F 66.2 °F 100% 30.27 in 10.0 mi South 5.8 mph - N/A   Clear
9:55 PM 66.2 °F - N/A% 30.28 in 10.0 mi South 8.1 mph - N/A   Clear
10:15 PM 66.2 °F 66.2 °F 100% 30.29 in 7.0 mi SSW 6.9 mph - N/A   Clear
10:35 PM 66.2 °F 66.2 °F 100% 30.29 in 10.0 mi SSW 8.1 mph - N/A   Clear
10:55 PM 66.2 °F 66.2 °F 100% 30.29 in 10.0 mi SSW 8.1 mph - N/A   Clear
11:15 PM 66.2 °F 66.2 °F 100% 30.27 in 10.0 mi SSW 8.1 mph - N/A   Clear
11:35 PM 66.2 °F 66.2 °F 100% 30.28 in 10.0 mi SSW 6.9 mph - N/A   Clear
11:55 PM 64.4 °F 64.4 °F 100% 30.29 in 10.0 mi South 9.2 mph - N/A   Clear